• In Hungary
  • List of Countries
  • For 7 days
  • Water Temperature
  • Satellite Maps
  • Weather Map
  • News
  • Weather Widgets
  • user-avatar
    Login

    Hourly Weather Mosolovo

    Today, 16 August, Thursday

    Time Temperature Precipitation Wind Pressure Humidity
    00:00 +15°C° 0 mm 2 mps 739 mmHg 98%
    01:00 +15°C° 0 mm 1 mps 739 mmHg 98%
    02:00 +15°C° 0 mm 1 mps 739 mmHg 98%
    03:00 +15°C° 0 mm 1 mps 740 mmHg 98%
    04:00 +15°C° 0 mm 1 mps 740 mmHg 98%
    05:00 +15°C° 0 mm 1 mps 740 mmHg 97%
    06:00 +15°C° 0 mm 1 mps 741 mmHg 95%
    07:00 +16°C° 0 mm 1 mps 741 mmHg 93%
    08:00 +16°C° 0 mm 1 mps 742 mmHg 91%
    09:00 +18°C° 0 mm 1 mps 742 mmHg 87%
    10:00 +18°C° 0 mm 1 mps 743 mmHg 84%
    11:00 +19°C° 0 mm 1 mps 743 mmHg 80%
    12:00 +20°C° 0 mm 1 mps 743 mmHg 75%
    13:00 +20°C° 0 mm 1 mps 743 mmHg 71%
    14:00 +21°C° 0 mm 1 mps 743 mmHg 66%
    15:00 +22°C° 0 mm 1 mps 744 mmHg 66%
    16:00 +22°C° 0 mm 1 mps 744 mmHg 65%
    17:00 +22°C° 0 mm 1 mps 744 mmHg 64%
    18:00 +20°C° 0 mm 1 mps 744 mmHg 70%
    19:00 +19°C° 0 mm 1 mps 744 mmHg 76%
    20:00 +16°C° 0 mm 1 mps 745 mmHg 82%
    21:00 +15°C° 0 mm 1 mps 745 mmHg 85%
    22:00 +14°C° 0 mm 1 mps 745 mmHg 87%
    23:00 +14°C° 0 mm 1 mps 745 mmHg 90%

    Tomorrow, 17 August, Friday

    Time Temperature Precipitation Wind Pressure Humidity
    00:00 +13°C° 0 mm 1 mps 746 mmHg 91%
    01:00 +13°C° 0 mm 1 mps 746 mmHg 92%
    02:00 +13°C° 0 mm 1 mps 746 mmHg 94%
    03:00 +13°C° 0 mm 1 mps 746 mmHg 94%
    04:00 +12°C° 0 mm 1 mps 747 mmHg 94%
    05:00 +12°C° 0 mm 1 mps 747 mmHg 94%
    06:00 +14°C° 0 mm 1 mps 747 mmHg 86%
    07:00 +18°C° 0 mm 1 mps 747 mmHg 77%
    08:00 +19°C° 0 mm 2 mps 747 mmHg 69%
    09:00 +20°C° 0 mm 2 mps 747 mmHg 62%
    10:00 +21°C° 0 mm 2 mps 747 mmHg 56%
    11:00 +24°C° 0 mm 2 mps 747 mmHg 49%
    12:00 +24°C° 0 mm 2 mps 747 mmHg 48%
    13:00 +24°C° 0 mm 2 mps 747 mmHg 47%
    14:00 +25°C° 0 mm 2 mps 747 mmHg 46%
    15:00 +24°C° 0 mm 2 mps 746 mmHg 50%
    16:00 +24°C° 0 mm 2 mps 746 mmHg 53%
    17:00 +24°C° 0 mm 2 mps 746 mmHg 57%
    18:00 +20°C° 0 mm 2 mps 746 mmHg 65%
    19:00 +18°C° 0 mm 2 mps 746 mmHg 72%
    20:00 +16°C° 0 mm 2 mps 746 mmHg 80%
    21:00 +15°C° 0 mm 2 mps 746 mmHg 81%
    22:00 +15°C° 0 mm 1 mps 746 mmHg 82%
    23:00 +14°C° 0 mm 1 mps 746 mmHg 84%

    Day after tomorrow, 18 August, Saturday

    Time Temperature Precipitation Wind Pressure Humidity
    00:00 +13°C° 0 mm 1 mps 746 mmHg 84%
    01:00 +13°C° 0 mm 2 mps 746 mmHg 85%
    02:00 +13°C° 0 mm 2 mps 746 mmHg 85%
    03:00 +12°C° 0 mm 2 mps 746 mmHg 86%
    04:00 +12°C° 0 mm 2 mps 746 mmHg 87%
    05:00 +12°C° 0 mm 2 mps 746 mmHg 87%
    06:00 +14°C° 0 mm 2 mps 747 mmHg 80%
    07:00 +17°C° 0 mm 2 mps 747 mmHg 73%
    08:00 +19°C° 0 mm 2 mps 747 mmHg 67%
    09:00 +20°C° 0 mm 2 mps 747 mmHg 60%
    10:00 +23°C° 0 mm 2 mps 746 mmHg 54%
    11:00 +25°C° 0 mm 3 mps 746 mmHg 48%
    12:00 +25°C° 0 mm 3 mps 746 mmHg 47%
    13:00 +26°C° 0 mm 3 mps 746 mmHg 46%
    14:00 +26°C° 0 mm 3 mps 746 mmHg 45%
    15:00 +26°C° 0 mm 3 mps 745 mmHg 50%
    16:00 +25°C° 0 mm 2 mps 745 mmHg 54%
    17:00 +25°C° 0 mm 2 mps 745 mmHg 58%
    18:00 +23°C° 0 mm 2 mps 745 mmHg 66%
    19:00 +20°C° 0 mm 2 mps 745 mmHg 74%
    20:00 +17°C° 0 mm 2 mps 745 mmHg 82%
    21:00 +17°C° 0 mm 2 mps 745 mmHg 84%
    22:00 +16°C° 0 mm 2 mps 745 mmHg 86%
    23:00 +16°C° 0 mm 2 mps 744 mmHg 88%

    19 August, Sunday

    Time Temperature Precipitation Wind Pressure Humidity
    00:00 +16°C° 0 mm 2 mps 744 mmHg 89%
    01:00 +15°C° 0 mm 2 mps 744 mmHg 90%
    02:00 +15°C° 0 mm 2 mps 744 mmHg 90%
    03:00 +15°C° 0 mm 2 mps 744 mmHg 90%
    04:00 +15°C° 0 mm 2 mps 744 mmHg 90%
    05:00 +14°C° 0 mm 3 mps 743 mmHg 89%
    06:00 +16°C° 0 mm 3 mps 743 mmHg 84%
    07:00 +18°C° 0 mm 3 mps 743 mmHg 79%
    08:00 +19°C° 0 mm 3 mps 743 mmHg 73%
    09:00 +20°C° 0.1 mm 3 mps 743 mmHg 71%
    10:00 +22°C° 0.1 mm 4 mps 742 mmHg 69%
    11:00 +23°C° 0.1 mm 4 mps 742 mmHg 68%
    12:00 +23°C° 0.6 mm 4 mps 742 mmHg 73%
    13:00 +23°C° 0.6 mm 4 mps 741 mmHg 77%
    14:00 +22°C° 0.6 mm 3 mps 741 mmHg 82%
    15:00 +22°C° 0.8 mm 3 mps 741 mmHg 85%
    16:00 +22°C° 0.8 mm 3 mps 741 mmHg 87%
    17:00 +21°C° 0.8 mm 3 mps 740 mmHg 90%
    18:00 +20°C° 0.5 mm 2 mps 740 mmHg 92%
    19:00 +19°C° 0.5 mm 2 mps 740 mmHg 94%
    20:00 +18°C° 0.5 mm 2 mps 741 mmHg 97%
    21:00 +18°C° 0 mm 2 mps 741 mmHg 97%
    22:00 +18°C° 0 mm 1 mps 741 mmHg 97%
    23:00 +18°C° 0 mm 1 mps 741 mmHg 98%

    20 August, Monday

    Time Temperature Precipitation Wind Pressure Humidity
    00:00 +16°C° 0 mm 1 mps 741 mmHg 97%
    01:00 +16°C° 0 mm 1 mps 741 mmHg 97%
    02:00 +16°C° 0 mm 1 mps 741 mmHg 97%
    03:00 +16°C° 0 mm 1 mps 741 mmHg 97%
    04:00 +16°C° 0 mm 1 mps 741 mmHg 97%
    05:00 +15°C° 0 mm 1 mps 741 mmHg 97%
    06:00 +16°C° 0.1 mm 1 mps 742 mmHg 97%
    07:00 +16°C° 0.1 mm 1 mps 742 mmHg 96%
    08:00 +16°C° 0.1 mm 1 mps 742 mmHg 96%
    09:00 +18°C° 0 mm 1 mps 742 mmHg 94%
    10:00 +18°C° 0 mm 1 mps 742 mmHg 92%
    11:00 +19°C° 0 mm 1 mps 742 mmHg 89%
    12:00 +20°C° 0.1 mm 1 mps 742 mmHg 83%
    13:00 +21°C° 0.1 mm 1 mps 742 mmHg 77%
    14:00 +21°C° 0.1 mm 2 mps 742 mmHg 71%
    15:00 +21°C° 0.1 mm 2 mps 742 mmHg 70%
    16:00 +21°C° 0.1 mm 2 mps 741 mmHg 70%
    17:00 +21°C° 0.1 mm 2 mps 741 mmHg 69%
    18:00 +20°C° 0 mm 1 mps 741 mmHg 74%
    19:00 +19°C° 0 mm 1 mps 741 mmHg 78%
    20:00 +16°C° 0 mm 1 mps 741 mmHg 83%
    21:00 +16°C° 0 mm 1 mps 741 mmHg 83%
    22:00 +15°C° 0 mm 1 mps 741 mmHg 83%
    23:00 +15°C° 0 mm 1 mps 741 mmHg 83%

    21 August, Tuesday

    Time Temperature Precipitation Wind Pressure Humidity
    00:00 +14°C° 0 mm 1 mps 741 mmHg 84%
    01:00 +14°C° 0 mm 1 mps 741 mmHg 85%
    02:00 +14°C° 0 mm 2 mps 740 mmHg 85%
    03:00 +14°C° 0 mm 2 mps 740 mmHg 86%
    04:00 +13°C° 0 mm 2 mps 740 mmHg 87%
    05:00 +13°C° 0 mm 2 mps 740 mmHg 88%
    06:00 +14°C° 0 mm 3 mps 740 mmHg 83%
    07:00 +17°C° 0 mm 4 mps 740 mmHg 79%
    08:00 +19°C° 0 mm 4 mps 739 mmHg 74%
    09:00 +20°C° 0 mm 4 mps 739 mmHg 71%
    10:00 +22°C° 0 mm 5 mps 739 mmHg 68%
    11:00 +23°C° 0 mm 5 mps 739 mmHg 65%
    12:00 +23°C° 0.2 mm 5 mps 738 mmHg 66%
    13:00 +23°C° 0.2 mm 6 mps 738 mmHg 68%
    14:00 +24°C° 0.2 mm 6 mps 738 mmHg 69%
    15:00 +23°C° 0.3 mm 5 mps 738 mmHg 73%
    16:00 +22°C° 0.3 mm 4 mps 738 mmHg 77%
    17:00 +22°C° 0.3 mm 4 mps 738 mmHg 80%
    18:00 +21°C° 0.1 mm 3 mps 738 mmHg 85%
    19:00 +19°C° 0.1 mm 3 mps 738 mmHg 89%
    20:00 +18°C° 0.1 mm 2 mps 738 mmHg 93%
    21:00 +18°C° 0 mm 2 mps 738 mmHg 94%
    22:00 +17°C° 0 mm 2 mps 738 mmHg 95%
    23:00 +17°C° 0 mm 2 mps 738 mmHg 97%
    Show more